Location: Zagreb
(45.8000°N, 16.0000°E)
Time: 21:23:54
(UTC+02:00)

A-11 Canister half - All Passes

Search period start: 09 August 2022 00:00
Search period end: 19 August 2022 00:00
Orbit: 1526 x 1683 km, 47.3° (Epoch: 08 August)

Date Brightness Start Highest point End Pass type
(mag) Time Alt. Az. Time Alt. Az. Time Alt. Az.
09 Aug - 05:18:06 10° S 05:26:01 27° SE 05:33:58 10° ENE visible
09 Aug - 07:19:53 10° SW 07:29:54 68° SSE 07:39:53 10° ENE daylight
09 Aug - 09:24:53 10° W 09:35:07 83° N 09:45:11 10° E daylight
09 Aug - 11:30:27 10° WNW 11:40:37 85° SSW 11:50:29 10° ESE daylight
09 Aug - 13:35:54 10° WNW 13:45:05 43° SW 13:53:58 10° SSE daylight
09 Aug - 15:45:36 10° WSW 15:47:56 11° WSW 15:50:17 10° SW daylight
10 Aug - 04:56:41 10° S 05:04:24 26° SE 05:12:08 10° E visible
10 Aug - 06:58:13 10° SW 07:08:12 66° SSE 07:18:11 10° ENE daylight
10 Aug - 09:03:08 10° W 09:13:23 84° N 09:23:27 10° E daylight
10 Aug - 11:08:43 10° WNW 11:18:54 86° SSW 11:28:48 10° ESE daylight
10 Aug - 13:14:09 10° WNW 13:23:26 45° SW 13:32:26 10° SSE daylight
10 Aug - 15:23:01 10° W 15:26:23 12° WSW 15:29:43 10° SW daylight
11 Aug - 04:35:18 10° S 04:42:47 24° SE 04:50:18 10° E visible
11 Aug - 06:36:35 10° SW 06:46:31 64° SSE 06:56:27 10° ENE daylight
11 Aug - 08:41:24 10° W 08:51:38 84° N 09:01:45 10° E daylight
11 Aug - 10:46:58 10° WNW 10:57:10 88° SSW 11:07:07 10° ESE daylight
11 Aug - 12:52:23 10° WNW 13:01:47 47° SW 13:10:53 10° SSE daylight
11 Aug - 15:00:42 10° W 15:04:48 13° WSW 15:08:52 10° SSW daylight
12 Aug - 04:13:55 10° S 04:21:10 23° SE 04:28:26 10° E visible
12 Aug - 06:14:55 10° SW 06:24:49 62° SSE 06:34:44 10° ENE daylight
12 Aug - 08:19:39 10° W 08:29:54 85° N 08:40:02 10° E daylight
12 Aug - 10:25:14 10° WNW 10:35:28 89° SSW 10:45:25 10° ESE daylight
12 Aug - 12:30:38 10° WNW 12:40:07 49° SW 12:49:20 10° SSE daylight
12 Aug - 14:38:31 10° W 14:43:14 14° WSW 14:47:53 10° SSW daylight
13 Aug - 03:52:36 10° S 03:59:33 22° SE 04:06:33 10° E visible
13 Aug - 05:53:18 10° SW 06:03:08 60° SSE 06:13:01 10° ENE daylight
13 Aug - 07:57:55 10° W 08:08:10 86° N 08:18:18 10° E daylight
13 Aug - 10:03:30 10° WNW 10:13:43 90° N 10:23:43 10° ESE daylight
13 Aug - 12:08:53 10° WNW 12:18:28 51° SW 12:27:46 10° SE daylight
13 Aug - 14:16:25 10° W 14:21:39 16° WSW 14:26:48 10° SSW daylight
14 Aug - 03:31:17 10° SSE 03:37:56 20° SE 03:44:39 10° E visible
14 Aug - 05:31:40 10° SW 05:41:27 58° SE 05:51:18 10° ENE daylight
14 Aug - 07:36:11 10° WSW 07:46:25 87° N 07:56:35 10° E daylight
14 Aug - 09:41:45 10° WNW 09:52:00 89° NNE 10:02:02 10° ESE daylight
14 Aug - 11:47:08 10° WNW 11:56:48 53° SW 12:06:12 10° SE daylight
14 Aug - 13:54:23 10° W 14:00:03 17° SW 14:05:40 10° SSW daylight
15 Aug - 03:10:01 10° SSE 03:16:20 19° SE 03:22:42 10° E visible
15 Aug - 05:10:03 10° SW 05:19:46 56° SE 05:29:33 10° ENE visible
15 Aug - 07:14:27 10° WSW 07:24:41 88° NNW 07:34:52 10° E daylight
15 Aug - 09:20:01 10° WNW 09:30:16 88° NNE 09:40:19 10° ESE daylight
15 Aug - 11:25:24 10° WNW 11:35:08 55° SW 11:44:36 10° SE daylight
15 Aug - 13:32:23 10° W 13:38:28 18° SW 13:44:28 10° SSW daylight
16 Aug - 02:48:46 10° SSE 02:54:44 18° SE 03:00:44 10° E visible
16 Aug - 04:48:27 10° SW 04:58:05 54° SE 05:07:50 10° ENE visible
16 Aug - 06:52:43 10° WSW 07:02:56 89° NNW 07:13:08 10° ENE daylight
16 Aug - 08:58:16 10° W 09:08:31 87° N 09:18:36 10° ESE daylight
16 Aug - 11:03:39 10° WNW 11:13:27 57° SW 11:23:01 10° SE daylight
16 Aug - 13:10:25 10° W 13:16:52 20° SW 13:23:13 10° SSW daylight
17 Aug - 02:27:35 10° SSE 02:33:08 16° ESE 02:38:43 10° E visible
17 Aug - 04:26:50 10° SW 04:36:24 52° SE 04:46:05 10° ENE visible
17 Aug - 06:31:01 10° WSW 06:41:12 90° N 06:51:25 10° ENE daylight
17 Aug - 08:36:32 10° W 08:46:47 86° N 08:56:54 10° E daylight
17 Aug - 10:41:54 10° WNW 10:51:47 59° SSW 11:01:24 10° SE daylight
17 Aug - 12:48:29 10° W 12:55:16 21° SW 13:01:57 10° S daylight
18 Aug - 02:06:27 10° SSE 02:11:32 15° ESE 02:16:40 10° E visible
18 Aug - 04:05:15 10° SSW 04:14:44 50° SE 04:24:20 10° ENE visible
18 Aug - 06:09:17 10° WSW 06:19:28 89° S 06:29:41 10° ENE daylight
18 Aug - 08:14:48 10° W 08:25:02 85° N 08:35:11 10° E daylight
18 Aug - 10:20:10 10° WNW 10:30:06 61° SSW 10:39:47 10° SE daylight
18 Aug - 12:26:35 10° W 12:33:40 22° SW 12:40:38 10° S daylight
